EW1160 Weather Reports


Display with metric or nautical units.
time (UTC)temp
F
wind
direction
speed
MPH
gust
MPH
rain 1hr
in
rain 24hr
in
rain mn
in
humidity
%
barometer
mb
20260509221523 59 212 0.0 0.0 0.00 0.15 0.15 62 999.7
20260509220030 61 270 0.0 0.0 0.00 0.15 0.15 61 999.4
20260509214521 62 213 0.0 0.0 0.00 0.15 0.15 57 999.0
20260509213020 62 256 0.0 0.0 0.00 0.15 0.15 58 998.7
20260509211502 62 259 0.0 0.0 0.00 0.15 0.15 60 998.5
20260509210000 63 226 0.0 0.0 0.00 0.15 0.15 65 999.1
20260509204543 62 183 0.0 0.0 0.00 0.15 0.15 73 999.1
20260509203044 61 231 0.0 0.0 0.01 0.15 0.15 76 999.1
20260509201526 59 181 0.0 0.0 0.03 0.15 0.15 83 999.3
20260509200031 57 203 0.0 0.0 0.14 0.15 0.15 87 999.2
20260509194507 54 189 0.0 0.0 0.15 0.15 0.15 89 999.5
20260509193006 53 204 0.0 0.0 0.14 0.14 0.14 85 999.9
20260509191607 53 253 0.0 0.0 0.12 0.12 0.12 80 999.4
20260509190048 62 186 0.0 0.0 0.01 0.01 0.01 72 998.5
20260509184548 63 181 0.0 0.0 0.00 0.00 0.00 65 998.4
20260509183039 64 179 0.0 0.0 0.00 0.00 0.00 64 998.5
20260509181528 64 191 0.0 0.0 0.00 0.00 0.00 65 998.6
20260509180010 64 199 0.0 0.0 0.00 0.00 0.00 63 998.8
20260509174521 64 174 0.0 0.0 0.00 0.00 0.00 65 998.6
20260509173054 62 224 0.0 0.0 0.00 0.00 0.00 68 999.1
20260509171547 61 154 0.0 0.0 0.00 0.00 0.00 70 999.4
20260509170032 62 179 0.0 0.0 0.00 0.00 0.00 69 999.8
20260509164528 64 169 0.0 0.0 0.00 0.00 0.00 70 999.3
20260509163010 63 193 0.0 0.0 0.00 0.00 0.00 73 999.5
20260509161506 61 152 0.0 0.0 0.00 0.00 0.00 75 999.6
20260509160047 61 194 0.0 0.0 0.00 0.00 0.00 76 999.9
20260509154544 60 169 0.0 0.0 0.00 0.00 0.00 78 1000.3
20260509153041 59 164 0.0 0.0 0.00 0.00 0.00 83 1000.9
20260509151520 57 182 0.0 0.0 0.00 0.00 0.00 85 1000.9
20260509150004 57 188 0.0 0.0 0.00 0.00 0.00 85 1002.2
20260509144502 57 190 0.0 0.0 0.00 0.00 0.00 84 1002.3
20260509143054 57 277 0.0 0.0 0.00 0.00 0.00 86 1001.9
20260509141541 57 183 0.0 0.0 0.00 0.00 0.00 90 1001.6
20260509140033 55 206 0.0 0.0 0.00 0.00 0.00 93 1001.8
20260509134522 53 186 0.0 0.0 0.00 0.00 0.00 93 1001.9
20260509133019 52 199 0.0 0.0 0.00 0.00 0.00 93 1001.8
20260509131523 52 198 0.0 0.0 0.00 0.00 0.00 93 1001.9
20260509130013 51 185 0.0 0.0 0.00 0.00 0.00 93 1002.1
20260509124512 51 182 0.0 0.0 0.00 0.00 0.00 93 1002.3
20260509123010 50 170 0.0 0.0 0.00 0.00 0.00 93 1002.3
20260509121512 50 181 0.0 0.0 0.00 0.00 0.00 93 1002.7
20260509120050 49 172 0.0 0.0 0.00 0.00 0.00 93 1002.7
20260509114547 49 186 0.0 0.0 0.00 0.00 0.00 93 1002.9
20260509113028 48 176 0.0 0.0 0.00 0.00 0.00 93 1002.8
20260509111528 47 177 0.0 0.0 0.00 0.00 0.00 93 1002.7
20260509110009 47 168 0.0 0.0 0.00 0.00 0.00 93 1002.5
20260509104510 47 179 0.0 0.0 0.00 0.00 0.00 93 1002.6
20260509103059 46 179 0.0 0.0 0.00 0.00 0.00 93 1002.5
20260509101551 46 172 0.0 0.0 0.00 0.00 0.00 93 1002.5
20260509100032 45 168 0.0 0.0 0.00 0.00 0.00 92 1002.6
20260509094531 45 176 0.0 0.0 0.00 0.00 0.00 92 1002.7
20260509093012 45 176 0.0 0.0 0.00 0.00 0.00 92 1003.0
20260509091511 45 177 0.0 0.0 0.00 0.00 0.00 92 1003.1
20260509090057 44 182 0.0 0.0 0.00 0.00 0.00 92 1003.1
20260509084553 43 175 0.0 0.0 0.00 0.00 0.00 92 1003.1
20260509083041 42 189 0.0 0.0 0.00 0.00 0.00 92 1003.1
20260509081539 42 188 0.0 0.0 0.00 0.00 0.00 91 1003.1
20260509080040 43 188 0.0 0.0 0.00 0.00 0.00 92 1003.1
20260509074536 43 188 0.0 0.0 0.00 0.00 0.00 91 1003.2
20260509073032 44 188 0.0 0.0 0.00 0.00 0.00 91 1003.2
20260509071529 45 188 0.0 0.0 0.00 0.00 0.00 91 1003.3
20260509070027 45 188 0.0 0.0 0.00 0.00 0.00 91 1003.6
20260509064529 45 186 0.0 0.0 0.00 0.00 0.00 91 1003.6
20260509063007 45 187 0.0 0.0 0.00 0.00 0.00 91 1003.9
20260509061505 45 187 0.0 0.0 0.00 0.00 0.00 91 1003.9
20260509060047 45 187 0.0 0.0 0.00 0.00 0.00 90 1004.1
20260509054604 46 188 0.0 0.0 0.00 0.00 0.00 90 1004.2
20260509053026 46 188 0.0 0.0 0.00 0.00 0.00 90 1004.4
20260509051523 46 187 0.0 0.0 0.00 0.00 0.00 89 1004.5
20260509050017 46 187 0.0 0.0 0.00 0.00 0.00 88 1004.6
20260509044504 46 187 0.0 0.0 0.00 0.00 0.00 88 1004.7
20260509043053 47 187 0.0 0.0 0.00 0.00 0.00 87 1004.8
20260509041542 47 187 0.0 0.0 0.00 0.00 0.00 87 1004.9
20260509040023 48 191 0.0 0.0 0.00 0.00 0.00 86 1005.2
20260509034520 48 196 0.0 0.0 0.00 0.00 0.00 85 1005.4
20260509033003 48 178 0.0 0.0 0.00 0.00 0.00 85 1005.6
20260509031505 49 191 0.0 0.0 0.00 0.00 0.00 84 1005.6
20260509030043 49 180 0.0 0.0 0.00 0.00 0.00 83 1005.7
20260509024544 50 170 0.0 0.0 0.00 0.00 0.00 82 1005.8
20260509023026 50 184 0.0 0.0 0.00 0.00 0.00 82 1006.0
20260509021527 51 194 0.0 0.0 0.00 0.00 0.00 81 1005.9
20260509020008 52 174 0.0 0.0 0.00 0.00 0.00 80 1005.9
20260509014508 52 185 0.0 0.0 0.00 0.00 0.00 78 1005.9
20260509013053 53 170 0.0 0.0 0.00 0.00 0.00 77 1005.7
20260509011550 54 166 0.0 0.0 0.00 0.00 0.00 75 1005.5
20260509010043 55 174 0.0 0.0 0.00 0.00 0.00 73 1005.4
20260509004548 56 179 0.0 0.0 0.00 0.00 0.00 71 1005.2
20260509003037 57 172 0.0 0.0 0.00 0.00 0.00 66 1005.2
20260509001537 57 170 0.0 0.0 0.00 0.00 0.00 63 1005.0
20260509000044 58 183 0.0 0.0 0.00 0.00 0.00 61 1005.0
20260508234536 59 193 0.0 0.0 0.00 0.00 0.00 59 1005.0
20260508233036 60 199 0.0 0.0 0.00 0.00 0.00 54 1005.0
20260508231534 61 178 0.0 0.0 0.00 0.00 0.00 46 1005.0
20260508230017 61 204 0.0 0.0 0.00 0.00 0.00 44 1004.9
20260508224516 61 188 0.0 0.0 0.00 0.00 0.00 43 1004.9
20260508223057 61 202 0.0 0.0 0.00 0.00 0.00 45 1005.0